Hourly Data Report for June 29, 2020

TRENTON A
ONTARIO
Current Station Operator: DND

44°04'10.000" N
77°20'17.000" W
86.30 m
6158875
71621
YTR

Download Data

Hourly Data (June 2020)
Hourly Data Report for June 29, 2020
TIME
LST
Temp Definition
°C
Dew Point Definition
°C
Rel Hum Definition
%
Precip. Amount Definition
mm

Wind Dir Definition
10's deg

Wind Spd Definition
km/h
Visibility Definition
km
Stn Press Definition
kPa
Hmdx Definition


Wind Chill Definition


Weather Definition


00:00 19.2 16.9 87   3 5 24.1 99.96     Clear
01:00 18.8 16.8 88   8 4 24.1 99.97     Clear
02:00 17.8 16.1 90   30 5 24.1 99.98     Clear
03:00 18.4 16.2 87   34 9 24.1 100.00     Clear
04:00 18.1 15.9 87   34 8 24.1 100.05     Clear
05:00 17.0 15.3 90   2 5 24.1 100.13     Clear
06:00 19.4 16.3 82   5 8 24.1 100.25     Clear
07:00 21.8 16.5 72   2 8 24.1 100.28 27   Clear
08:00 24.0 16.2 62   3 13 24.1 100.29 29   Clear
09:00 26.1 17.2 58   5 9 24.1 100.30 32   Clear
10:00 27.5 16.4 51   2 18 24.1 100.28 32   Clear
11:00 28.3 15.7 46   5 13 24.1 100.29 33   Mainly Clear
12:00 29.3 15.9 44   7 9 24.1 100.27 34   Mainly Clear
13:00 25.3 17.4 62   21 18 24.1 100.29 31   Mainly Clear
14:00 26.6 17.1 56   21 17 24.1 100.31 32   Mostly Cloudy
15:00 26.0 18.0 61   19 11 24.1 100.30 32   Mainly Clear
16:00 25.3 17.2 61   19 9 24.1 100.28 31   Mostly Cloudy
17:00 26.3 17.5 58   15 11 24.1 100.32 32   Mainly Clear
18:00 26.0 17.1 58   22 9 24.1 100.32 31   Mainly Clear
19:00 25.1 17.1 61   16 4 24.1 100.35 30   Mainly Clear
20:00 22.8 17.8 73   3 4 24.1 100.38 29   Mainly Clear
21:00 21.6 17.5 78   5 9 24.1 100.49 27   Mostly Cloudy
22:00 20.8 16.8 78   5 11 24.1 100.51 26   Mostly Cloudy
23:00 19.1 16.7 86   4 9 24.1 100.51     Mainly Clear

Notes on Data Quality.

Legend

  • E = Estimated
  • M = Missing
  • NA = Not Available*
  • [empty] = Indicates an unobserved value
Date modified: